This is the latest recevied weather packets stored in our database for station/object EA1GHG-11. If no packets are shown the sender has not sent any weather packets the latest 10 day(s).
| Time | Temp. | Humidity | Pressure | Rain* | Wind** | Luminosity | Snow |
|---|---|---|---|---|---|---|---|
| 1777954019 | 7.78° C | 100% | 1019.6 hPa | - | - | - | - |
| 1777952519 | 7.78° C | 100% | 1019.5 hPa | - | - | - | - |
| 1777951018 | 7.78° C | 100% | 1019.6 hPa | - | - | - | - |
| 1777949518 | 7.22° C | 100% | 1019.7 hPa | - | - | - | - |
| 1777948018 | 7.78° C | 100% | 1019.8 hPa | - | - | - | - |
| 1777946518 | 7.22° C | 100% | 1019.8 hPa | - | - | - | - |
| 1777945018 | 6.67° C | 100% | 1020 hPa | - | - | - | - |
| 1777943518 | 6.67° C | 100% | 1020.2 hPa | - | - | - | - |
| 1777942017 | 6.11° C | 100% | 1020.4 hPa | - | - | - | - |
| 1777940516 | 7.78° C | 100% | 1020.4 hPa | - | - | - | - |
| 1777939917 | 7.78° C | 100% | 1020.4 hPa | - | - | - | - |
| 1777938417 | 8.33° C | 100% | 1020.3 hPa | - | - | - | - |
| 1777936917 | 8.33° C | 100% | 1020.2 hPa | - | - | - | - |
| 1777935417 | 8.33° C | 100% | 1020.2 hPa | - | - | - | - |
| 1777933921 | 9.44° C | 100% | 1020.4 hPa | - | - | - | - |
| 1777932417 | 9.44° C | 100% | 1020.4 hPa | - | - | - | - |
| 1777930917 | 9.44° C | 100% | 1020.6 hPa | - | - | - | - |
| 1777929417 | 8.89° C | 100% | 1020.6 hPa | - | - | - | - |
| 1777927917 | 9.44° C | 100% | 1020.4 hPa | - | - | - | - |
| 1777926417 | 9.44° C | 100% | 1020.2 hPa | - | - | - | - |
| 1777924916 | 10° C | 100% | 1020 hPa | - | - | - | - |
| 1777923416 | 10° C | 100% | 1019.8 hPa | - | - | - | - |
| 1777921916 | 10° C | 100% | 1019.4 hPa | - | - | - | - |
| 1777920416 | 10° C | 100% | 1019.4 hPa | - | - | - | - |
| 1777918915 | 10.56° C | 100% | 1019.2 hPa | - | - | - | - |
* Rain since midnight (hover to see other rain measurements)
** Current wind speed in m/s (hover to see current wind gust speed)